Location: Batang Balui
(2.7000°N, 113.7833°E)
Time: 19:06:20
(UTC+00:00)

Envisat - Pass Details

Date: 17 December 2022
Orbit: 763 x 765 km, 98.2° (Epoch: 29 January)

Event Time Altitude Azimuth Distance (km) Brightness Sun altitude
Exits shadow 19:19:48 15° 116° (ESE) 1,959 5.6 -42.1°
Drops below altitude 10° 19:21:48 10° 139° (SE) 2,295 6.0 -41.7°
Sets 19:24:58 0° 160° (SSE) 3,223 6.8 -41.0°
